Fairborn, OH

11:59 PM EST on February 11, 2016 (GMT -0500)
Wright-Patterson Air Force Base

Weather History for KFFO - August, 2013

Change the Weather History Date:

Monday, August 12, 2013

  Actual Average Record
Temperature  
Mean Temperature 74 °F -  
Max Temperature 84 °F 81 °F 96 °F (2005)
Min Temperature 64 °F 60 °F 48 °F (2004)
Cooling Degree Days 8    
Growing Degree Days 24 (Base 50)    
Moisture  
Dew Point 65 °F    
Average Humidity 80    
Maximum Humidity 100    
Minimum Humidity 53    
Precipitation  
Precipitation 0.00 in - - ()
Sea Level Pressure  
Sea Level Pressure 30.03 in    
Wind  
Wind Speed 2 mph (South)    
Max Wind Speed 9 mph    
Max Gust Speed -    
Visibility 9 miles    
Events Fog    
Averages and records for this station are not official NWS values.
T = Trace of Precipitation, MM = Missing Value Source: NWS Daily Summary

Daily Weather History Graph

Daily Weather History Graph

Search for Another Location

Airport or City:

Trip Planner

Search our weather history database for the weather conditions in past years. The results will help you decide how hot, cold, wet, or windy it might be!

Date:

Astronomy

Aug. 12, 2013 Rise Set
Actual Time 6:45 AM EDT 8:36 PM EDT
Civil Twilight 6:16 AM EDT 9:05 PM EDT
Nautical Twilight 5:40 AM EDT 9:40 PM EDT
Astronomical Twilight 5:02 AM EDT 10:18 PM EDT
Moon 12:34 PM EDT 11:29 PM EDT
Length of Visible Light 14h 48m
Length of Day
13h 50m
Waxing Crescent, 31% of the Moon is Illuminated
Aug 12
Waxing Crescent
Aug 14
First Quarter
Aug 20
Full
Aug 28
Last Quarter
Sep 5
New

Hourly Weather History & Observations

Time (EDT) Temp. Heat Index Dew Point Humidity Pressure Visibility Wind Dir Wind Speed Gust Speed Precip Events Conditions
12:08 AM 68.0 °F - 64.4 °F 88% 30.10 in 10.0 mi Calm Calm - N/A   Clear
12:58 AM 67.3 °F - 64.6 °F 91% 30.09 in 6.0 mi Calm Calm - N/A   Clear
1:08 AM 68.0 °F - 64.4 °F 88% 30.10 in 5.0 mi North 2.3 mph - N/A   Clear
1:18 AM 68.0 °F - 64.4 °F 88% 30.10 in 10.0 mi NNE 1.2 mph - N/A   Clear
1:58 AM 67.1 °F - 64.9 °F 93% 30.10 in 10.0 mi ENE 1.2 mph - N/A   Clear
2:28 AM 64.4 °F - 64.4 °F 100% 30.10 in 4.0 mi Calm Calm - N/A   Clear
2:48 AM 66.2 °F - 64.4 °F 94% 30.09 in 9.0 mi Calm Calm - N/A   Clear
2:58 AM 65.8 °F - 63.5 °F 92% 30.09 in 10.0 mi Calm Calm - N/A   Clear
3:58 AM 64.4 °F - 62.6 °F 94% 30.09 in 7.0 mi SSW 2.3 mph - N/A Fog Patches of Fog
4:28 AM 64.4 °F - 62.6 °F 94% 30.08 in 10.0 mi SSE 1.2 mph - N/A Fog Patches of Fog
4:58 AM 64.2 °F - 62.8 °F 95% 30.08 in 10.0 mi NE 1.2 mph - N/A Fog Patches of Fog
5:58 AM 64.4 °F - 62.6 °F 94% 30.08 in 9.0 mi East 2.3 mph - N/A Fog Patches of Fog
6:28 AM 64.4 °F - 62.6 °F 94% 30.07 in 7.0 mi South 2.3 mph - N/A Fog Shallow Fog
6:58 AM 64.4 °F - 62.6 °F 94% 30.08 in 10.0 mi NNW 2.3 mph - N/A Fog Patches of Fog
7:58 AM 66.4 °F - 63.5 °F 90% 30.08 in 6.0 mi Calm Calm - N/A   Clear
8:48 AM 69.8 °F - 64.4 °F 83% 30.07 in 3.0 mi Calm Calm - N/A   Haze
8:58 AM 69.8 °F - 65.3 °F 86% 30.06 in 10.0 mi Calm Calm - N/A   Scattered Clouds
9:58 AM 76.3 °F - 65.3 °F 69% 30.06 in 10.0 mi SSE 6.9 mph - N/A   Partly Cloudy
10:58 AM 78.4 °F - 66.4 °F 66% 30.04 in 10.0 mi SSE 8.1 mph - 0.00 in   Mostly Cloudy
11:58 AM 80.1 °F 82.4 °F 67.5 °F 65% 30.02 in 10.0 mi South 8.1 mph - N/A   Mostly Cloudy
12:58 PM 81.3 °F 83.8 °F 67.3 °F 62% 30.02 in 10.0 mi SSW 9.2 mph - N/A   Mostly Cloudy
1:58 PM 82.8 °F 84.3 °F 64.4 °F 54% 30.01 in 10.0 mi South 9.2 mph - N/A   Scattered Clouds
2:58 PM 81.9 °F 84.2 °F 66.7 °F 60% 29.99 in 10.0 mi SSW 8.1 mph - N/A   Scattered Clouds
3:58 PM 83.7 °F 86.0 °F 66.4 °F 56% 29.96 in 10.0 mi Variable 6.9 mph - N/A   Mostly Cloudy
4:58 PM 83.3 °F 85.3 °F 65.7 °F 55% 29.95 in 10.0 mi WSW 5.8 mph - N/A   Clear
5:58 PM 82.4 °F 83.7 °F 63.7 °F 53% 29.93 in 10.0 mi WSW 5.8 mph - N/A   Partly Cloudy
6:58 PM 80.4 °F 82.8 °F 67.1 °F 64% 29.91 in 10.0 mi WSW 5.8 mph - N/A   Partly Cloudy
7:58 PM 78.8 °F - 67.3 °F 68% 29.91 in 10.0 mi WSW 4.6 mph - N/A   Mostly Cloudy
8:58 PM 77.0 °F - 67.8 °F 73% 29.90 in 10.0 mi SSW 3.5 mph - N/A   Mostly Cloudy
9:58 PM 75.6 °F - 67.6 °F 76% 29.89 in 10.0 mi South 5.8 mph - N/A   Mostly Cloudy
10:58 PM 73.9 °F - 67.6 °F 81% 29.90 in 10.0 mi South 9.2 mph - N/A   Mostly Cloudy
11:58 PM 72.0 °F - 67.6 °F 86% 29.88 in 10.0 mi SSW 4.6 mph - N/A   Overcast